Location: New Plymouth
(39.0670°S, 174.0830°E)
Time: 13:13:51
(UTC+12:00)

NOAA 19 - Pass Details

Date: 25 August 2019
Orbit: 840 x 862 km, 99.2° (Epoch: 20 September)

Event Time Altitude Azimuth Distance (km) Brightness Sun altitude
Rises 18:13:07 0° 171° (S) 3,461 8.2 -4.4°
Reaches altitude 10° 18:15:32 10° 173° (S) 2,520 7.5 -4.8°
Maximum altitude 18:21:02 61° 252° (WSW) 984 5.9 -5.9°
Drops below altitude 10° 18:26:30 10° 331° (NNW) 2,501 8.2 -6.9°
Sets 18:28:53 0° 334° (NNW) 3,431 8.9 -7.4°
